This is the latest recevied weather packets stored in our database for station/object K6HFP. If no packets are shown the sender has not sent any weather packets the latest 1 day(s).
| Time | Temp. | Humidity | Pressure | Rain* | Wind** | Luminosity | Snow |
|---|---|---|---|---|---|---|---|
| 1778048363 | 14.44° C | 80% | 1017 hPa | 0 mm | 0 m/s | 0 W/m² | - |
| 1778048060 | 14.44° C | 80% | 1016.8 hPa | 0 mm | 0.45 m/s, 95° | 0 W/m² | - |
| 1778047758 | 14.44° C | 80% | 1016.8 hPa | 0 mm | 0 m/s | 0 W/m² | - |
| 1778047456 | 14.44° C | 80% | 1016.6 hPa | 0 mm | 0.89 m/s, 109° | 0 W/m² | - |
| 1778047153 | 14.44° C | 79% | 1016.5 hPa | 0 mm | 0.45 m/s, 111° | 0 W/m² | - |
| 1778046850 | 14.44° C | 79% | 1016.5 hPa | 0 mm | 0 m/s | 0 W/m² | - |
| 1778046546 | 14.44° C | 79% | 1016.5 hPa | 0 mm | 0.45 m/s, 97° | 0 W/m² | - |
| 1778046243 | 14.44° C | 78% | 1016.3 hPa | 0 mm | 0.45 m/s, 115° | 0 W/m² | - |
| 1778045939 | 14.44° C | 78% | 1016.4 hPa | 0 mm | 0.45 m/s, 120° | 0 W/m² | - |
| 1778045638 | 14.44° C | 79% | 1016.4 hPa | 0 mm | 0.45 m/s, 89° | 0 W/m² | - |
| 1778045336 | 14.44° C | 79% | 1016.4 hPa | 0 mm | 0 m/s | 0 W/m² | - |
| 1778045034 | 14.44° C | 78% | 1016.4 hPa | 0 mm | 0 m/s | 0 W/m² | - |
| 1778044732 | 14.44° C | 78% | 1016.4 hPa | 0 mm | 0 m/s | 0 W/m² | - |
| 1778044428 | 14.44° C | 77% | 1016.4 hPa | 0 mm | 0.45 m/s, 56° | 0 W/m² | - |
| 1778044125 | 15° C | 78% | 1016.1 hPa | 0 mm | 0.45 m/s, 47° | 0 W/m² | - |
| 1778043823 | 15° C | 76% | 1016.2 hPa | 0 mm | 0.45 m/s, 67° | 0 W/m² | - |
| 1778043519 | 15° C | 76% | 1016 hPa | 0 mm | 0.45 m/s, 88° | 0 W/m² | - |
| 1778043216 | 14.44° C | 75% | 1015.6 hPa | 0 mm | 0.45 m/s, 122° | 0 W/m² | - |
| 1778042913 | 14.44° C | 78% | 1016 hPa | 0 mm | 0 m/s | 0 W/m² | - |
| 1778042611 | 14.44° C | 77% | 1015.8 hPa | 0 mm | 0.45 m/s, 73° | 0 W/m² | - |
| 1778042308 | 14.44° C | 78% | 1016.1 hPa | 0 mm | 0.45 m/s, 79° | 0 W/m² | - |
| 1778042005 | 14.44° C | 79% | 1015.7 hPa | 0 mm | 0.89 m/s, 85° | 0 W/m² | - |
| 1778041703 | 14.44° C | 79% | 1016 hPa | 0 mm | 0.89 m/s, 91° | 0 W/m² | - |
| 1778041402 | 14.44° C | 79% | 1015.6 hPa | 0 mm | 0.89 m/s, 97° | 0 W/m² | - |
| 1778041101 | 14.44° C | 81% | 1015.7 hPa | 0 mm | 0.45 m/s, 100° | 0 W/m² | - |
* Rain latest hour (hover to see other rain measurements)
** Current wind speed in m/s (hover to see current wind gust speed)